Flag for Germany Weather past 2 weeks in Prenzlau, Brandenburg, Germany

Now
32 °F

Light snow. Ice fog.


Feels Like: 24 °F
Forecast: 28 / 35 °F
Wind: 9 mph from Southeast

Location: Szczecin Airport

Current Time: Jan 30, 2015 at 9:40:20 AM

Latest Report: Jan 30, 2015 at 9:00 AM


Visibility: 1 mi

Pressure: 28.80 "Hg

Humidity: 93%

Dew point: 30 °F

Location of PrenzlauLocation

Historic Weather in Prenzlau — Graph

°F

Prenzlau temperature yesterday

Maximum temperature yesterday: 39 °F (at 11:30 AM)
Minimum temperature yesterday: 32 °F (at 10:30 PM)
Average temperature yesterday: 35 °F

Past Weeks' High & Low Weather Summary

 TemperatureHumidityPressure
High48 °F (Jan 16, 12:30 AM)100% (Jan 17, 6:00 AM)30.27 "Hg (Jan 17, 6:00 AM)
Low23 °F (Jan 18, 4:30 AM)62% (Jan 16, 12:30 AM)28.80 "Hg (Jan 30, 5:30 AM)
Average34 °F90%29.87 "Hg
* Reported Jan 15 8:00 AM — Jan 30 8:30 AM, Prenzlau, Weather by CustomWeather, © 2014

Note: Actual official high and low records may vary slightly from our data, if they occured in-between our weather recording intervals... More about our weather records

Advertising

Prenzlau weather history for previous 24 hours

 ConditionsComfort  
Time TempWeatherWind HumidityBarometerVisibility
8:30 AM
Jan 30
32 °FLight snow. Ice fog.10 mph93%28.80 "Hg1 mi
8:00 AM32 °FLight snow. Ice fog.10 mph93%28.80 "Hg1 mi
7:30 AM32 °FLight snow. Ice fog.12 mph93%28.80 "Hg2 mi
7:00 AM32 °FLight rain. Passing clouds.10 mph93%28.80 "Hg4 mi
6:30 AM32 °FLight rain. Ice fog.9 mph93%28.80 "Hg2 mi
6:00 AM32 °FLight snow. Ice fog.12 mph93%28.80 "Hg2 mi
5:30 AM32 °FLight snow. Ice fog.13 mph93%28.80 "Hg2 mi
5:00 AM32 °FLight snow. Ice fog.12 mph87%28.82 "Hg2 mi
4:30 AM32 °FLight snow. Passing clouds.10 mph87%28.82 "Hg5 mi
4:00 AM32 °FLight snow. Passing clouds.10 mph87%28.82 "Hg4 mi
3:30 AM32 °FLight snow. Passing clouds.10 mph87%28.85 "HgN/A
3:00 AM32 °FLight snow. Clear.9 mph87%28.85 "HgN/A
2:30 AM34 °FLight snow. Clear.13 mph81%28.88 "HgN/A
2:00 AM34 °FClear.12 mph81%28.88 "Hg10 mi
1:30 AM34 °FClear.12 mph81%28.88 "Hg10 mi
1:00 AM34 °FClear.13 mph81%28.88 "Hg10 mi
12:30 AM32 °FClear.13 mph87%28.91 "Hg10 mi
12:00 AM32 °FClear.13 mph87%28.91 "Hg10 mi
11:30 PM
Jan 29
32 °FPassing clouds.10 mph87%28.94 "HgN/A
11:00 PM32 °FPassing clouds.12 mph87%28.94 "HgN/A
10:30 PM32 °FPassing clouds.12 mph93%28.94 "HgN/A
10:00 PM34 °FPassing clouds.10 mph87%28.97 "HgN/A
9:30 PM34 °FPassing clouds.13 mph87%28.97 "HgN/A
9:00 PM34 °FPartly cloudy.13 mph87%28.97 "HgN/A
8:30 PM34 °FPassing clouds.14 mph81%29.00 "HgN/A
8:00 PM34 °FClear.14 mph81%29.00 "Hg10 mi
7:30 PM34 °FPassing clouds.14 mph81%29.00 "HgN/A
7:00 PM34 °FPassing clouds.14 mph87%29.03 "HgN/A
6:30 PM34 °FPassing clouds.14 mph87%29.03 "HgN/A
6:00 PM34 °FPassing clouds.14 mph87%29.03 "HgN/A
5:30 PM36 °FPartly cloudy.14 mph81%29.06 "HgN/A
5:00 PM36 °FLight rain. Partly cloudy.13 mph81%29.06 "Hg5 mi
4:30 PM34 °FLight snow. Broken clouds.10 mph93%29.09 "Hg5 mi
4:00 PM37 °FLight snow. Broken clouds.14 mph65%29.09 "Hg5 mi
3:30 PM37 °FBroken clouds.13 mph65%29.09 "HgN/A
3:00 PM37 °FBroken clouds.12 mph65%29.09 "HgN/A
2:30 PM37 °FBroken clouds.13 mph65%29.12 "HgN/A
2:00 PM37 °FBroken clouds.13 mph65%29.12 "HgN/A
1:30 PM37 °FBroken clouds.15 mph65%29.12 "HgN/A
1:00 PM37 °FBroken clouds.14 mph65%29.15 "HgN/A
12:30 PM37 °FBroken clouds.14 mph70%29.15 "HgN/A
12:00 PM37 °FBroken clouds.16 mph70%29.15 "HgN/A
11:30 AM39 °FPartly sunny.14 mph65%29.18 "HgN/A
11:00 AM37 °FBroken clouds.16 mph70%29.18 "HgN/A
10:30 AM37 °FPassing clouds.16 mph70%29.18 "HgN/A
10:00 AM36 °FPassing clouds.15 mph75%29.18 "HgN/A
9:30 AM36 °FPassing clouds.12 mph75%29.18 "HgN/A
9:00 AM36 °FScattered clouds.9 mph81%29.18 "HgN/A
Weather by CustomWeather, © 2014

See weather overviewHow to use our weather pages